Location: Gisborne
(38.6530°S, 178.0040°E)
Time: 03:09:20
(UTC+13:00)

HJ-1C - Pass Details

Date: 24 January 2019
Orbit: 438 x 451 km, 97.2° (Epoch: 18 February)

Event Time Altitude Azimuth Distance (km) Brightness Sun altitude
Rises 20:59:37 0° 167° (SSE) 2,497 7.4 -6.0°
Reaches altitude 10° 21:01:41 10° 166° (SSE) 1,612 6.4 -6.4°
Maximum altitude 21:05:09 78° 79° (E) 472 3.4 -6.9°
Drops below altitude 10° 21:08:32 10° 352° (N) 1,578 5.9 -7.5°
Sets 21:10:32 0° 350° (N) 2,438 6.9 -7.8°
